Regional Weather Roundup
Issued by NWS Green Bay, WI

Home | Current Version | Previous Version | Text Only | Print | Product List | Glossary On
Versions: 1 2 3 4 5 6 7 8 9 10 11 12 13 14 15 16 17 18 19 20 21 22 23 24 25 26 27 28 29 30 31 32 33 34 35 36 37 38 39 40 41 42 43 44 45 46 47 48 49 50
000
ASUS43 KGRB 300900
RWRGRB

NORTH-CENTRAL AND NORTHEAST WISCONSIN REGIONAL WEATHER ROUNDUP
NATIONAL WEATHER SERVICE GREEN BAY WI
400 AM CDT SAT JUL 30 2016

WIZ005-009-010>012-018-019-301000-
NORTH CENTRAL WISCONSIN

CITY           SKY/WX    TMP DP  RH WIND       PRES   REMARKS
IRONWOOD       MOCLDY    57  55  94 CALM      30.05S
MANITOWISH WTR NOT AVBL
ARBOR VITAE    NOT AVBL
EAGLE RIVER    NOT AVBL
LAND O LAKES   NOT AVBL
RHINELANDER    PTCLDY    56  54  93 CALM      30.09F FOG
PHILLIPS       MOCLDY    56  56 100 CALM      30.08S
ANTIGO         NOT AVBL
TOMAHAWK       NOT AVBL
MERRILL        NOT AVBL
$$

WIZ013-073-301000-
NORTHEAST WISCONSIN

CITY           SKY/WX    TMP DP  RH WIND       PRES   REMARKS
IRON MOUNTAIN  PTCLDY    54  50  86 N6        30.08R
MARINETTE      CLEAR    N/A N/A N/A N6        30.05S
$$

WIZ017-030-035>037-045-301000-
CENTRAL WISCONSIN

CITY           SKY/WX    TMP DP  RH WIND       PRES   REMARKS
MEDFORD        NOT AVBL
WAUSAU         MOCLDY    60  55  83 N3        30.04F
MOSINEE        NOT AVBL
MARSHFIELD     CLEAR     61  56  83 NE5       30.04F
WISC RAPIDS    CLOUDY    64  56  75 NE7       30.04F
STEVENS POINT  NOT AVBL
WAUPACA        NOT AVBL
SHAWANO        NOT AVBL
CLINTONVILLE   CLOUDY    61  55  82 N3        30.04S
WAUTOMA        CLOUDY    64  59  83 NE5       30.03R
$$

WIZ038-039-048-051-301000-
FOX VALLEY

CITY           SKY/WX    TMP DP  RH WIND       PRES   REMARKS
NWS GREEN BAY  CLEAR     60  59  96 CALM      30.02S
APPLETON       NOT AVBL
OSHKOSH        PTCLDY    67  61  81 CALM      30.01R
FOND DU LAC    PTCLDY    62  59  90 CALM      30.01S
$$

WIZ022-050-052-301000-
EAST CENTRAL WISCONSIN

CITY           SKY/WX    TMP DP  RH WIND       PRES   REMARKS
EPHRAIM        FAIR      62  58  86 E5        30.05S
WASHINGTON ISL NOT AVBL
STURGEON BAY   CLEAR     66  61  84 SE5       30.04S
MANITOWOC      NOT AVBL
SHEBOYGAN      PTCLDY    61  58  90 NE3       30.01S
$$

LMZ563-521-522-541>543-301000-
LAKESHORE

STATION/POSITION TIME  TEMP    WIND        PRES    VSBY  WAVE
                       AIR SEA DIR/SP/G                  HT/PER
                 (UTC) (F)     (DEG/KT/KT) (MB)    (MI)  (FT/S)
SHEBOYGAN LKSHOR 0800   70      90/ 12/ 13 1016.0F
KEWAUNEE LKSHORE 0800   67     150/  5/  5 1016.0R
ALGOMA MARINA    0813          170/  7/  9   N/A
NORTHPORT PIER   0800   70     110/  8/  9 1017.3S
N MID LAKE BUOY  0750   70 69  120/  8/ 10 1017.1S         1/ 3
S GREEN BAY BUOY 0800   68 70   70/  8/ 12 1016.1
SISTER BAY LKSHO 0821   65     120/  6/  8   N/A
CHAMBERS ISLAND  0800   70      50/  6/ 10 1017.3
MENOMINEE LKSHOR 0800   71      80/ 11/ 14 1016.4R
$$



USA.gov is the U.S. government's official web portal to all federal, state and local government web resources and services.